Orbital Elements at Epoch 2459200.5 (2020-Dec-17.0) TDB
Reference: JPL 23 (heliocentric ecliptic J2000)
Element | Value | Uncertainty (1-sigma) | Units |
e | .1231636497227538 | 3.86e-08 | |
a | 2.174062872891518 | 8.2316e-09 | au |
q | 1.906297354739463 | 8.5827e-08 | au |
i | 3.870500523235411 | 4.0161e-06 | deg |
node | 81.40468109280249 | 5.8684e-05 | deg |
peri | 180.4807939899011 | 6.1219e-05 | deg |
M | 248.7001539828674 | 1.8331e-05 | deg |
tp | 2459562.491721709438 (2021-Dec-13.99172171) | 6.0641e-05 | TDB |
period | 1170.864331612264 3.21 | 6.6498e-06 1.821e-08 | d yr |
n | .3074651693456961 | 1.7462e-09 | deg/d |
Q | 2.441828391043572 | 9.2454e-09 | au |
|
| | Orbit Determination Parameters
Additional Information
|